Temperature
16 16 16 16 16 16 16 16 16 15 16 16 16 16 16 16 16 15 15 15 15 15 15 15 15 15 15 15 15 15 15 15 15 15 15 15 15 15
16 16 16 16 16 16 16 15 15 15 15 15 15 15 15 15 15 15 15 15 15 15 15 15 15 15 15 15 15 15 15 15 15 15 15 15 15 15
16 16 16 16 16 16 15 15 15 15 15 15 15 15 15 15 15 15 15 15 15 15 15 14 14 15 15 15 15 15 15 14 14 15 14 14 14 14
16 16 16 16 15 15 15 15 15 15 15 15 15 15 15 15 15 15 15 15 15 15 14 14 14 14 14 14 14 14 14 14 14 14 14 14 14 14
16 16 16 15 15 15 15 15 15 15 15 14 14 14 14 14 14 14 14 14 14 14 14 14 14 14 14 14 14 14 14 14 14 14 14 14 14 14
16 16 15 15 15 15 15 15 15 14 14 14 14 14 14 14 14 14 14 14 14 14 14 14 14 14 14 14 14 14 14 14 14 14 14 14 14 14
15 15 15 15 15 15 15 14 14 14 14 14 14 13 13 14 14 14 13 14 14 14 14 14 13 13 13 13 13 13 13 13 14 14 13 13 14 14
15 15 15 15 15 14 14 14 14 14 14 14 13 13 13 13 13 13 13 13 13 13 13 13 13 13 13 13 13 13 13 13 13 13 13 13 13 13
15 15 15 15 15 14 14 14 14 14 13 13 13 13 13 13 13 13 13 13 13 13 13 13 13 13 13 13 13 13 13 13 13 13 13 13 13 13
15 15 15 14 14 14 14 14 14 14 13 13 13 13 13 13 13 13 12 12 13 13 12 12 13 12 12 12 13 13 13 12 12 12 12 12 12 12
14 14 14 14 14 14 14 14 14 14 13 13 13 13 13 13 13 12 12 12 12 12 12 12 12 12 12 12 12 12 12 12 12 12 12 12 12 12
14 14 14 14 14 14 14 14 13 13 13 13 13 13 13 13 12 12 12 12 12 12 12 12 12 12 12 12 12 12 12 12 12 12 12 12 12 12
14 14 14 14 14 13 13 13 13 13 13 13 12 12 12 12 12 12 12 12 12 12 12 12 12 11 11 11 12 12 12 12 12 12 11 11 11 11
14 14 14 14 13 13 13 13 13 12 12 12 12 12 12 12 12 12 12 12 11 11 11 11 11 11 11 11 11 11 11 11 11 11 11 11 11 11
14 14 13 13 13 13 13 12 12 12 12 12 12 12 12 12 11 11 11 11 11 11 11 11 11 11 11 11 11 11 11 11 11 11 11 11 11 11
13 13 13 13 13 13 12 12 12 12 12 12 12 11 11 11 11 11 11 11 11 11 11 11 11 11 11 11 10 10 10 10 10 10 10 10 10 10
13 13 13 13 13 12 12 12 12 12 12 12 11 11 11 11 11 11 11 11 11 11 11 11 11 11 10 10 10 10 10 10 10 10 10 10 10 10
13 13 12 12 12 12 12 12 12 12 12 11 11 11 11 11 11 10 10 10 10 10 10 10 10 10 10 10 10 10 10 10 10 10 9 9 9 10
13 12 12 12 12 12 12 12 12 12 11 11 11 11 11 10 10 10 10 10 10 10 10 10 10 9 9 9 9 9 9 9 9 9 9 9 9 9
13 12 12 12 12 12 12 11 11 11 11 11 11 11 10 10 10 10 10 10 9 9 9 9 9 9 9 9 9 9 9 9 9 9 9 9 9 9
12 12 12 12 12 11 11 11 11 11 11 11 10 10 10 10 10 10 9 9 9 9 9 9 9 9 9 9 8 9 9 9 9 9 9 8 8 8
12 12 12 12 11 11 11 11 11 11 10 10 10 10 10 9 9 9 9 9 9 9 9 9 9 9 9 8 8 8 9 9 9 8 8 8 8 8
12 12 12 11 11 11 11 11 11 10 10 10 10 10 9 9 9 9 9 9 9 9 9 9 9 8 8 8 8 8 8 8 8 8 8 8 8 8
Wind_Speed
2 2 1 1 1 2 2 2 2 2 3 2 2 2 2 4 5 5 5 6 6 6 5 5 5 4 4 4 5 6 5 5 5 5 5 5 5 5
1 1 1 1 1 1 2 2 2 3 3 2 2 3 3 3 4 4 5 7 6 6 6 6 5 5 4 4 4 4 5 6 6 5 5 5 6 6
1 2 2 1 1 1 1 2 2 2 3 3 2 2 2 3 3 4 4 4 4 5 6 6 5 5 5 5 5 5 5 6 6 6 5 5 6 6
3 2 2 2 1 1 1 2 2 3 3 3 2 2 2 3 3 3 3 3 3 4 5 6 6 6 6 6 6 6 6 5 5 6 6 6 6 6
4 3 3 3 3 2 2 2 2 2 2 2 3 2 2 2 3 3 3 3 3 3 4 5 6 6 5 5 6 6 6 5 5 5 6 6 6 7
4 4 4 4 4 4 3 3 2 2 2 2 2 2 2 2 1 2 3 2 3 3 3 3 3 4 4 4 4 4 5 5 5 5 6 6 6 6
4 4 4 5 6 4 3 3 3 2 2 2 2 2 2 2 2 2 3 3 2 2 2 2 2 2 3 4 5 5 4 4 4 4 4 5 5 6
4 4 4 3 4 4 5 5 5 5 4 3 3 3 4 3 2 2 2 2 2 1 1 3 2 2 3 3 4 4 4 3 3 3 4 4 5 5
4 4 4 3 3 3 4 4 5 6 7 5 5 5 5 4 3 3 3 3 3 2 1 3 2 2 3 3 4 4 3 3 3 3 3 4 4 4
4 4 4 3 3 2 3 3 3 4 5 5 5 6 5 4 4 4 3 3 3 2 2 2 2 2 3 3 3 4 4 3 3 3 2 3 3 3
3 3 3 3 3 2 2 3 3 4 3 4 5 5 5 5 4 2 1 2 3 2 2 2 1 2 2 2 2 3 4 4 4 3 3 3 3 2
3 3 4 4 4 4 4 3 4 4 3 2 2 2 2 2 3 3 3 3 2 2 2 2 1 1 2 1 2 2 2 3 4 4 3 3 3 2
3 3 4 5 6 6 5 5 6 4 2 2 2 2 1 1 1 2 3 3 3 3 2 2 2 1 2 2 2 2 2 2 2 3 3 3 3 3
5 4 4 6 6 5 5 5 5 3 2 1 1 1 2 2 2 2 2 3 4 4 3 3 2 2 2 2 2 2 2 1 1 2 2 2 3 3
4 5 4 4 5 4 4 4 3 2 2 1 2 2 2 3 2 2 2 1 2 2 2 3 2 2 2 2 2 2 2 2 1 1 2 1 2 2
3 3 3 2 2 2 1 2 2 2 3 3 3 3 2 2 1 1 1 1 1 2 2 1 2 2 3 3 3 2 2 2 1 1 1 2 1 2
2 1 1 1 1 1 1 1 2 2 2 2 2 2 2 2 2 1 1 0 1 2 2 2 2 1 2 2 2 3 2 2 2 1 1 2 2 2
3 2 2 2 2 2 2 2 2 3 3 3 3 2 2 2 2 1 0 1 1 2 2 2 1 1 1 1 2 3 2 2 2 1 1 2 3 3
3 3 3 3 3 3 3 3 3 3 3 3 3 3 3 2 2 1 1 1 2 2 2 2 1 1 2 3 2 2 2 2 2 2 2 3 4 4
3 4 4 3 3 3 3 3 3 2 2 3 3 3 3 3 2 2 2 2 3 3 2 2 2 2 3 4 3 3 3 3 2 2 2 2 3 4
4 4 3 4 3 4 4 3 3 3 3 3 3 2 3 3 3 3 3 3 3 3 3 4 4 4 3 2 3 3 3 3 4 3 2 2 3 3
3 3 3 3 3 4 4 3 3 3 3 3 3 3 3 3 4 4 3 3 3 4 4 4 3 2 2 3 4 4 3 2 2 3 4 4 3 3
4 3 3 3 3 3 3 3 4 3 3 3 3 3 3 3 3 3 4 4 4 4 4 3 3 2 3 3 4 4 4 3 2 2 3 5 7 8
Wind_Direction
181 179 191 216 203 204 190 182 182 241 268 273 286 287 288 274 280 274 275 284 278 272 269 269 267 268 275 280 279 271 264 262 263 264 260 259 263 264
186 169 197 224 210 206 205 203 198 204 245 261 263 293 304 304 295 279 275 285 279 273 267 268 268 266 274 278 277 274 264 257 253 253 254 254 256 262
204 188 217 207 204 224 212 202 206 203 240 273 271 290 287 300 308 297 282 277 281 276 271 268 268 270 270 271 270 266 263 256 250 245 245 248 253 256
211 202 227 214 214 227 216 221 222 216 222 262 284 292 282 295 299 300 308 292 279 287 275 269 267 270 273 270 273 268 262 257 253 246 240 242 247 251
209 209 224 211 230 229 222 230 236 233 222 238 272 283 290 312 317 314 311 311 295 294 280 274 271 271 276 274 275 270 264 258 254 251 249 248 248 250
218 218 224 219 227 228 229 231 225 223 222 234 265 285 290 303 306 304 305 306 303 311 309 298 286 276 279 281 278 274 268 259 253 253 256 254 252 249
232 231 229 225 226 226 233 226 217 217 220 233 256 273 282 290 280 279 284 300 289 293 299 304 302 292 282 280 276 274 268 261 254 252 253 251 246 247
232 241 237 233 240 246 247 234 218 217 219 225 239 247 256 251 259 268 274 294 293 288 286 293 287 281 280 282 292 280 266 252 244 248 255 250 241 239
226 235 245 243 228 247 262 257 240 237 225 219 232 240 244 236 236 256 253 256 266 282 272 286 285 284 286 289 292 276 260 240 233 242 249 246 239 237
226 225 228 244 241 239 252 266 266 258 249 236 237 246 247 237 223 236 248 261 273 265 231 264 285 282 296 290 280 255 247 240 241 250 252 241 235 234
233 229 220 234 248 221 220 256 277 283 272 267 257 255 254 240 212 206 225 250 273 268 218 238 267 286 288 290 291 260 247 241 242 247 254 254 238 235
235 234 228 238 244 219 214 227 253 269 286 307 305 298 280 257 208 209 215 229 254 262 224 215 237 259 277 281 303 306 270 258 249 248 249 252 242 216
227 240 243 239 236 232 224 230 242 250 256 261 284 299 313 305 266 235 224 223 234 248 232 206 229 233 252 284 296 296 277 279 272 263 248 242 225 205
225 234 236 229 225 227 228 240 242 231 230 238 266 283 292 294 290 282 256 241 239 249 243 207 222 232 239 265 284 307 300 282 270 267 261 248 230 220
233 233 232 222 217 223 227 226 219 213 211 227 253 264 271 280 292 298 301 287 280 275 254 225 232 232 237 246 265 285 299 301 281 263 253 241 232 221
242 238 222 219 213 216 224 236 227 217 211 231 247 261 282 292 290 290 283 288 299 314 329 290 252 232 239 245 243 268 278 290 312 299 273 265 266 246
188 179 197 208 217 234 246 251 237 221 225 242 245 258 265 265 274 277 265 258 255 293 312 331 331 292 259 244 254 264 278 292 287 296 284 286 279 271
155 195 214 219 230 242 246 249 238 231 230 232 237 240 242 245 256 262 238 223 252 279 293 301 340 17 344 277 236 264 281 290 301 294 269 269 282 282
178 215 223 228 232 235 238 238 241 240 228 228 232 234 234 234 235 236 231 243 261 268 275 274 251 226 278 295 298 231 259 280 294 300 285 269 273 282
211 220 224 228 231 234 237 238 241 238 229 229 230 226 223 223 223 227 228 234 244 253 262 263 253 244 246 267 277 279 255 251 257 273 280 278 281 282
224 230 231 231 236 238 239 234 229 229 226 220 219 224 226 222 228 232 236 235 239 247 260 269 269 261 252 248 264 282 291 263 244 248 254 266 285 283
223 229 233 236 238 237 233 227 223 225 221 220 220 223 226 225 231 235 238 242 244 248 259 270 281 258 231 241 260 274 284 300 292 261 248 242 251 254
219 224 229 230 233 233 229 225 223 225 223 224 223 222 222 227 233 238 242 244 249 252 259 270 282 267 254 249 258 265 267 279 294 294 296 290 264 264
Height
1547 1547 1547 1547 1548 1548 1548 1548 1549 1547 1546 1546 1546 1545 1544 1543 1543 1542 1542 1541 1540 1540 1539 1539 1538 1537 1537 1536 1536 1535 1535 1535 1535 1535 1535 1534 1534 1535
1545 1546 1546 1546 1546 1546 1546 1546 1546 1546 1544 1543 1543 1542 1541 1541 1540 1539 1539 1538 1537 1537 1536 1536 1535 1535 1534 1534 1533 1532 1532 1532 1532 1532 1532 1531 1531 1532
1543 1543 1544 1544 1544 1544 1543 1543 1543 1543 1541 1541 1540 1539 1539 1538 1537 1537 1536 1535 1534 1534 1533 1533 1532 1532 1531 1531 1530 1530 1530 1529 1529 1528 1528 1528 1528 1528
1541 1541 1541 1541 1541 1541 1541 1541 1540 1540 1539 1538 1537 1537 1536 1535 1534 1533 1533 1532 1531 1531 1530 1530 1529 1529 1528 1528 1527 1527 1526 1526 1526 1525 1525 1525 1525 1525
1538 1539 1539 1539 1539 1539 1538 1538 1538 1537 1537 1536 1535 1534 1533 1532 1531 1531 1530 1529 1528 1527 1527 1526 1525 1525 1525 1524 1524 1523 1523 1523 1522 1522 1522 1522 1522 1522
1536 1536 1536 1536 1536 1536 1536 1535 1535 1535 1534 1533 1532 1531 1530 1530 1529 1528 1527 1526 1525 1524 1523 1522 1522 1522 1521 1521 1520 1520 1519 1519 1519 1519 1519 1519 1519 1518
1533 1533 1533 1533 1533 1533 1533 1533 1532 1532 1531 1530 1529 1528 1528 1527 1526 1525 1524 1523 1522 1521 1520 1519 1519 1518 1518 1517 1517 1516 1516 1516 1515 1515 1515 1515 1515 1515
1530 1530 1530 1529 1530 1530 1530 1529 1529 1528 1528 1527 1526 1525 1524 1524 1523 1522 1521 1520 1519 1519 1517 1517 1516 1515 1514 1514 1514 1513 1513 1512 1512 1512 1512 1512 1512 1512
1526 1526 1526 1526 1526 1526 1526 1525 1525 1525 1525 1524 1523 1522 1521 1521 1520 1519 1518 1518 1517 1516 1515 1513 1513 1512 1511 1511 1511 1510 1510 1509 1509 1509 1509 1509 1509 1509
1522 1522 1522 1522 1522 1522 1522 1521 1521 1521 1520 1520 1519 1519 1518 1517 1517 1517 1516 1515 1514 1513 1512 1511 1510 1509 1508 1508 1507 1507 1507 1506 1506 1506 1506 1506 1505 1505
1518 1518 1518 1518 1518 1518 1518 1517 1517 1517 1517 1517 1516 1515 1515 1514 1513 1513 1512 1512 1510 1510 1510 1508 1507 1506 1506 1505 1505 1504 1504 1504 1503 1503 1503 1502 1502 1502
1514 1514 1514 1514 1514 1514 1514 1514 1513 1514 1514 1513 1513 1512 1512 1511 1510 1510 1509 1509 1508 1507 1507 1506 1505 1504 1503 1502 1502 1501 1501 1501 1500 1500 1500 1499 1499 1499
1510 1510 1510 1510 1510 1510 1510 1510 1510 1511 1510 1510 1509 1509 1508 1508 1507 1507 1506 1506 1505 1504 1504 1503 1502 1502 1501 1500 1499 1499 1498 1497 1497 1497 1497 1496 1496 1496
1505 1506 1506 1506 1506 1506 1507 1507 1507 1508 1507 1507 1506 1505 1505 1505 1504 1504 1503 1503 1502 1502 1501 1501 1500 1499 1498 1497 1496 1495 1495 1494 1494 1493 1493 1493 1493 1493
1502 1502 1503 1502 1502 1503 1503 1503 1504 1504 1504 1503 1502 1502 1502 1502 1502 1501 1500 1499 1499 1499 1498 1498 1497 1496 1496 1494 1493 1492 1492 1491 1491 1490 1490 1490 1490 1489
1498 1498 1499 1499 1499 1499 1499 1500 1500 1500 1500 1500 1500 1499 1499 1499 1498 1498 1497 1496 1496 1495 1495 1495 1494 1493 1492 1491 1491 1490 1489 1489 1488 1487 1487 1487 1487 1486
1495 1495 1495 1495 1495 1496 1496 1496 1496 1496 1497 1497 1496 1496 1496 1495 1495 1494 1494 1493 1492 1491 1491 1491 1491 1490 1490 1489 1488 1487 1487 1486 1485 1484 1484 1483 1483 1483
1492 1492 1492 1492 1492 1492 1492 1493 1493 1493 1492 1493 1492 1492 1492 1491 1491 1491 1491 1490 1489 1489 1488 1488 1488 1487 1487 1486 1486 1485 1484 1483 1483 1482 1481 1481 1480 1480
1489 1489 1489 1489 1489 1490 1489 1490 1490 1490 1489 1489 1488 1488 1488 1488 1488 1488 1487 1487 1486 1486 1486 1485 1485 1484 1484 1483 1483 1483 1482 1480 1480 1479 1479 1478 1477 1477
1486 1486 1486 1486 1487 1487 1487 1487 1487 1486 1486 1485 1485 1484 1484 1485 1484 1484 1484 1484 1483 1483 1483 1482 1482 1481 1481 1481 1480 1479 1479 1478 1477 1476 1475 1475 1474 1474
1483 1483 1483 1483 1483 1484 1484 1483 1483 1483 1483 1482 1481 1481 1481 1481 1481 1481 1481 1481 1480 1479 1479 1479 1478 1479 1478 1477 1476 1475 1476 1476 1475 1474 1473 1472 1471 1470
1480 1480 1480 1480 1480 1480 1480 1480 1480 1480 1479 1479 1478 1478 1478 1478 1477 1477 1477 1477 1476 1476 1475 1475 1475 1475 1474 1474 1472 1472 1472 1472 1472 1471 1471 1470 1469 1467
1476 1477 1477 1477 1477 1477 1476 1476 1476 1476 1476 1475 1474 1474 1474 1474 1474 1473 1473 1473 1472 1472 1472 1471 1471 1471 1470 1470 1469 1469 1468 1468 1467 1467 1467 1467 1466 1465